GW6944 Weather Reports


Display with metric or nautical units.
time (UTC)temp
F
wind
direction
speed
MPH
gust
MPH
rain 1hr
in
rain 24hr
in
rain mn
in
humidity
%
barometer
mb
20260503184916 62 215 3.0 10.0 0.00 0.00 0.00 30 1052.4
20260503184413 62 280 3.0 7.0 0.00 0.00 0.00 33 1052.6
20260503183910 62 300 6.0 10.0 0.00 0.00 0.00 32 1052.5
20260503183406 61 252 4.0 7.0 0.00 0.00 0.00 33 1052.5
20260503182903 60 123 6.0 9.0 0.00 0.00 0.00 33 1052.6
20260503182403 61 224 5.0 9.0 0.00 0.00 0.00 35 1052.8
20260503181859 61 162 4.0 6.0 0.00 0.00 0.00 34 1052.9
20260503181356 61 249 3.0 6.0 0.00 0.00 0.00 35 1053.0
20260503180853 60 117 5.0 9.0 0.00 0.00 0.00 37 1053.0
20260503180351 60 123 6.0 7.0 0.00 0.00 0.00 32 1053.2
20260503175847 60 252 3.0 4.0 0.00 0.00 0.00 34 1053.1
20260503175345 60 189 4.0 7.0 0.00 0.00 0.00 32 1053.4
20260503174840 60 157 4.0 6.0 0.00 0.00 0.00 35 1053.6
20260503174339 60 281 4.0 6.0 0.00 0.00 0.00 33 1053.3
20260503173834 60 256 3.0 3.0 0.00 0.00 0.00 40 1053.5
20260503173331 60 223 3.0 9.0 0.00 0.00 0.00 31 1053.5
20260503172827 60 135 4.0 4.0 0.00 0.00 0.00 33 1053.6
20260503172325 60 112 5.0 7.0 0.00 0.00 0.00 33 1053.6
20260503171821 60 112 5.0 7.0 0.00 0.00 0.00 33 1053.9
20260503171318 60 295 3.0 3.0 0.00 0.00 0.00 32 1053.9
20260503170815 60 300 4.0 4.0 0.00 0.00 0.00 31 1054.1
20260503170312 60 316 3.0 4.0 0.00 0.00 0.00 31 1054.2
20260503150704 57 187 0.0 3.0 0.00 0.00 0.00 34 1055.1
20260503150200 57 141 3.0 3.0 0.00 0.00 0.00 33 1055.1
20260503140124 52 245 1.0 3.0 0.00 0.00 0.00 52 1055.4
20260503131054 46 225 0.0 2.0 0.00 0.00 0.00 70 1055.3
20260503130550 45 217 2.0 2.0 0.00 0.00 0.00 69 1055.0
20260503110441 31 313 0.0 0.0 0.00 0.00 0.00 96 1054.3
20260503090332 0 0.0 0.0 0.00 0.00 0.00 1053.7
20260503081300 32 313 0.0 0.0 0.00 0.00 0.00 94 1053.4
20260503080756 32 313 0.0 0.0 0.00 0.00 0.00 94 1053.6
20260503080254 32 313 0.0 0.0 0.00 0.00 0.00 94 1053.6
20260503072730 33 313 0.0 0.0 0.00 0.00 0.00 93 1053.6
20260503072226 33 313 0.0 0.0 0.00 0.00 0.00 93 1053.2
20260503071723 33 313 0.0 0.0 0.00 0.00 0.00 93 1053.3
20260503071220 34 313 0.0 0.0 0.00 0.00 0.00 93 1053.4
20260503070717 33 313 0.0 0.0 0.00 0.00 0.00 93 1053.3
20260503070215 33 313 0.0 0.0 0.00 0.00 0.00 93 1053.5
20260503060139 36 313 0.0 0.0 0.00 0.00 0.00 88 1053.7
20260503054626 36 313 0.0 0.0 0.00 0.00 0.00 89 1053.6
20260503054123 37 313 0.0 0.0 0.00 0.00 0.00 90 1053.5
20260503053621 36 313 0.0 0.0 0.00 0.00 0.00 90 1053.3
20260503053120 37 313 0.0 0.0 0.00 0.00 0.00 89 1053.5
20260503052616 37 313 0.0 0.0 0.00 0.00 0.00 89 1053.6
20260503052112 37 313 0.0 0.0 0.00 0.00 0.00 90 1053.5
20260503051607 37 313 0.0 0.0 0.00 0.00 0.00 88 1053.4
20260503051106 37 313 0.0 0.0 0.00 0.00 0.00 88 1053.3
20260503050602 38 313 0.0 0.0 0.00 0.00 0.00 88 1053.5
20260503050059 38 313 0.0 0.0 0.00 0.00 0.00 86 1053.3
20260503045555 38 313 0.0 0.0 0.00 0.00 0.00 87 1053.5
20260503045053 38 313 0.0 0.0 0.00 0.00 0.00 87 1053.4
20260503044549 38 313 0.0 0.0 0.00 0.00 0.00 84 1053.6
20260503044047 39 313 0.0 0.0 0.00 0.00 0.00 86 1053.6
20260503043543 39 313 0.0 0.0 0.00 0.00 0.00 86 1053.7
20260503043040 38 313 0.0 0.0 0.00 0.00 0.00 86 1053.4
20260503042537 38 313 0.0 0.0 0.00 0.00 0.00 87 1053.4
20260503042033 38 313 0.0 0.0 0.00 0.00 0.00 86 1053.2
20260503041530 39 313 0.0 0.0 0.00 0.00 0.00 87 1053.4
20260503041028 39 313 0.0 0.0 0.00 0.00 0.00 86 1053.1
20260503040525 39 313 0.0 0.0 0.00 0.00 0.00 87 1053.2
20260503040022 39 313 0.0 0.0 0.00 0.00 0.00 87 1053.1
20260503035519 39 313 0.0 0.0 0.00 0.00 0.00 87 1053.3
20260503035016 39 313 0.0 0.0 0.00 0.00 0.00 87 1053.3
20260503034514 39 313 0.0 0.0 0.00 0.00 0.00 88 1053.1
20260503034010 39 313 0.0 0.0 0.00 0.00 0.00 88 1053.1
20260503033508 40 313 0.0 0.0 0.00 0.00 0.00 88 1053.1
20260503033006 40 313 0.0 0.0 0.00 0.00 0.00 88 1053.1
20260503032504 40 313 0.0 0.0 0.00 0.00 0.00 89 1053.1
20260503032002 40 313 0.0 0.0 0.00 0.00 0.00 88 1053.0
20260503031459 40 313 0.0 0.0 0.00 0.00 0.00 88 1052.9
20260503030955 40 313 0.0 0.0 0.00 0.00 0.00 88 1052.9
20260503030452 41 313 0.0 0.0 0.00 0.00 0.00 88 1053.0
20260503025949 41 313 0.0 0.0 0.00 0.00 0.00 88 1052.9
20260503025446 41 313 0.0 0.0 0.00 0.00 0.00 88 1053.2
20260503024943 41 313 0.0 0.0 0.00 0.00 0.00 88 1053.0
20260503024439 41 313 0.0 0.0 0.00 0.00 0.00 89 1052.9
20260503023937 41 313 0.0 0.0 0.00 0.00 0.00 88 1052.8
20260503023434 41 313 0.0 0.0 0.00 0.00 0.00 88 1052.9
20260503022930 41 313 0.0 0.0 0.00 0.00 0.00 88 1052.6
20260503022425 41 313 0.0 0.0 0.00 0.00 0.00 88 1052.7
20260503021922 42 313 0.0 0.0 0.00 0.00 0.00 87 1052.6
20260503021418 42 313 0.0 0.0 0.00 0.00 0.00 86 1052.5
20260503020916 42 313 0.0 0.0 0.00 0.00 0.00 85 1052.4
20260503020414 42 313 0.0 0.0 0.00 0.00 0.00 85 1052.4
20260503015909 43 313 0.0 0.0 0.00 0.00 0.00 84 1052.2
20260503015407 43 313 0.0 0.0 0.00 0.00 0.00 83 1052.0
20260503014902 43 313 0.0 0.0 0.00 0.00 0.00 83 1052.1
20260503014400 44 313 0.0 0.0 0.00 0.00 0.00 82 1052.0
20260503013858 44 313 0.0 0.0 0.00 0.00 0.00 82 1052.0
20260503013354 44 313 0.0 0.0 0.00 0.00 0.00 79 1052.1
20260503012851 45 313 0.0 0.0 0.00 0.00 0.00 76 1051.9
20260503012349 46 313 0.0 0.0 0.00 0.00 0.00 75 1052.0
20260503011846 46 313 0.0 0.0 0.00 0.00 0.00 70 1051.7
20260503011343 47 313 0.0 0.0 0.00 0.00 0.00 73 1051.8
20260503010839 47 313 0.0 0.0 0.00 0.00 0.00 73 1051.8
20260503010336 48 313 0.0 0.0 0.00 0.00 0.00 71 1051.8
20260503005833 48 313 0.0 0.0 0.00 0.00 0.00 68 1051.8
20260503005331 48 313 0.0 0.0 0.00 0.00 0.00 70 1051.7
20260503004826 49 313 0.0 0.0 0.00 0.00 0.00 69 1051.7
20260503004324 49 313 0.0 0.0 0.00 0.00 0.00 67 1051.5
20260503003822 49 313 0.0 0.0 0.00 0.00 0.00 59 1051.7
20260503003318 50 313 0.0 0.0 0.00 0.00 0.00 64 1051.7
20260503002815 50 313 0.0 0.0 0.00 0.00 0.00 57 1051.4
20260503002312 50 313 0.0 0.0 0.00 0.00 0.00 63 1051.2
20260503001809 51 313 0.0 0.0 0.00 0.00 0.00 54 1051.2
20260503001305 51 313 0.0 0.0 0.00 0.00 0.00 54 1051.0
20260503000803 52 313 0.0 0.0 0.00 0.00 0.00 53 1051.1
20260503000300 53 313 0.0 0.0 0.00 0.00 0.00 51 1050.8
20260502235757 53 313 0.0 0.0 0.00 0.00 0.00 51 1050.7
20260502235254 54 313 0.0 0.0 0.00 0.00 0.00 48 1050.9
20260502234750 53 313 0.0 0.0 0.00 0.00 0.00 52 1050.8
20260502234248 53 313 0.0 0.0 0.00 0.00 0.00 50 1050.8
20260502233744 53 311 0.0 0.0 0.00 0.00 0.00 48 1050.8
20260502233241 54 319 0.0 0.0 0.00 0.00 0.00 51 1050.6
20260502232736 56 316 0.0 0.0 0.00 0.00 0.00 43 1050.7
20260502232234 56 316 0.0 1.0 0.00 0.00 0.00 43 1050.7
20260502231730 57 309 1.0 2.0 0.00 0.00 0.00 45 1050.6
20260502231228 58 294 1.0 1.0 0.00 0.00 0.00 44 1050.6
20260502230727 58 302 0.0 0.0 0.00 0.00 0.00 44 1050.6
20260502230225 56 37 0.0 4.0 0.00 0.00 0.00 48 1050.8
20260502225720 55 318 0.0 2.0 0.00 0.00 0.00 54 1050.9
20260502225218 56 263 1.0 1.0 0.00 0.00 0.00 45 1050.9
20260502224714 57 299 1.0 2.0 0.00 0.00 0.00 46 1050.8
20260502224211 56 298 2.0 3.0 0.00 0.00 0.00 48 1050.8
20260502223708 55 309 1.0 3.0 0.00 0.00 0.00 49 1050.8
20260502223206 55 309 1.0 3.0 0.00 0.00 0.00 49 1050.8
20260502222704 54 308 1.0 2.0 0.00 0.00 0.00 51 1050.7
20260502222200 54 288 2.0 2.0 0.00 0.00 0.00 51 1051.1
20260502221656 55 287 3.0 3.0 0.00 0.00 0.00 49 1050.9
20260502221153 55 316 0.0 2.0 0.00 0.00 0.00 51 1050.9
20260502220649 54 73 2.0 2.0 0.00 0.00 0.00 51 1051.0
20260502220145 54 307 3.0 3.0 0.00 0.00 0.00 48 1050.9
20260502215643 54 293 4.0 6.0 0.00 0.00 0.00 47 1051.0
20260502215139 54 305 4.0 4.0 0.00 0.00 0.00 48 1050.6
20260502214637 54 323 3.0 7.0 0.00 0.00 0.00 50 1050.7
20260502214134 54 318 2.0 4.0 0.00 0.00 0.00 50 1050.7
20260502213631 54 302 3.0 4.0 0.00 0.00 0.00 50 1050.6
20260502213128 54 299 1.0 3.0 0.00 0.00 0.00 50 1050.9
20260502212627 54 312 2.0 4.0 0.00 0.00 0.00 53 1050.6
20260502212125 54 270 1.0 2.0 0.00 0.00 0.00 52 1050.8
20260502211625 53 318 0.0 2.0 0.00 0.00 0.00 56 1050.6
20260502211123 53 325 3.0 6.0 0.00 0.00 0.00 50 1050.7
20260502210621 54 326 3.0 6.0 0.00 0.00 0.00 51 1050.9
20260502210117 53 302 1.0 1.0 0.00 0.00 0.00 51 1050.8
20260502205614 53 280 4.0 4.0 0.00 0.00 0.00 52 1050.6
20260502205111 53 310 0.0 3.0 0.00 0.00 0.00 52 1051.0
20260502204608 53 293 1.0 6.0 0.00 0.00 0.00 53 1051.0
20260502204105 53 287 0.0 4.0 0.00 0.00 0.00 54 1050.9
20260502203602 53 315 1.0 1.0 0.00 0.00 0.00 52 1050.8
20260502203100 53 267 4.0 4.0 0.00 0.00 0.00 51 1051.0
20260502202555 54 296 3.0 3.0 0.00 0.00 0.00 51 1051.1
20260502202054 55 290 2.0 3.0 0.00 0.00 0.00 50 1051.1
20260502201549 55 296 2.0 3.0 0.00 0.00 0.00 53 1051.0
20260502201046 55 57 0.0 6.0 0.00 0.00 0.00 51 1051.0
20260502200542 55 305 1.0 2.0 0.00 0.00 0.00 50 1051.1
20260502200040 55 50 2.0 2.0 0.00 0.00 0.00 49 1051.1
20260502195537 55 313 6.0 9.0 0.00 0.00 0.00 48 1051.1
20260502195033 55 288 3.0 6.0 0.00 0.00 0.00 47 1051.1
20260502194530 54 302 1.0 3.0 0.00 0.00 0.00 51 1051.1
20260502194026 54 311 3.0 6.0 0.00 0.00 0.00 48 1051.1
20260502193524 55 306 5.0 8.0 0.00 0.00 0.00 46 1051.2
20260502193020 56 285 4.0 4.0 0.00 0.00 0.00 49 1051.1
20260502192516 57 264 2.0 2.0 0.00 0.00 0.00 47 1051.0
20260502192014 59 295 2.0 2.0 0.00 0.00 0.00 44 1051.2
20260502191510 58 62 0.0 2.0 0.00 0.00 0.00 49 1051.1
20260502191008 56 62 0.0 1.0 0.00 0.00 0.00 51 1051.2
20260502190505 55 76 1.0 1.0 0.00 0.00 0.00 49 1051.3
20260502190002 55 66 1.0 1.0 0.00 0.00 0.00 49 1051.4
20260502185457 55 65 1.0 1.0 0.00 0.00 0.00 51 1051.2